Honolulu, HI

8:20 AM HST on April 28, 2017 (GMT -1000)
Honolulu International

Weather History for PHNL - January, 2013

Change the Weather History Date:

Tuesday, January 1, 2013

  Actual Average Record
Temperature  
Mean Temperature 69 °F 74 °F  
Max Temperature 73 °F 80 °F 85 °F (1987)
Min Temperature 65 °F 67 °F 55 °F (1973)
Degree Days  
Heating Degree Days 0 0  
Month to date heating degree days 0 0  
Since 1 July heating degree days 0 0  
Cooling Degree Days 4 9  
Month to date cooling degree days 4 9  
Year to date cooling degree days 4 9  
Growing Degree Days 18 (Base 50)    
Moisture  
Dew Point 66 °F    
Average Humidity 87    
Maximum Humidity 100    
Minimum Humidity 73    
Precipitation  
Precipitation T in 0.10 in 1.61 in (2005)
Month to date precipitation T 0.10  
Year to date precipitation T 0.10  
Snow  
Snow 0.00 in - - ()
Month to date snowfall 0.0  
Since 1 July snowfall 0.0  
Snow Depth 0.00 in    
Sea Level Pressure  
Sea Level Pressure 30.08 in    
Wind  
Wind Speed 9 mph (NNE)    
Max Wind Speed 17 mph    
Max Gust Speed 24 mph    
Visibility 10 miles    
Events Rain    
T = Trace of Precipitation, MM = Missing Value Source: NWS Daily Summary

Daily Weather History Graph

Daily Weather History Graph

Search for Another Location

Airport or City:

Trip Planner

Search our weather history database for the weather conditions in past years. The results will help you decide how hot, cold, wet, or windy it might be!

Date:

Astronomy

Jan. 01, 2013 Rise Set
Actual Time 7:09 AM HST 6:01 PM HST
Civil Twilight 6:45 AM HST 6:25 PM HST
Nautical Twilight 6:17 AM HST 6:53 PM HST
Astronomical Twilight 5:50 AM HST 7:20 PM HST
Moon 10:07 PM HST (1/1) 10:00 AM HST (1/1)
Length of Visible Light 11h 40m
Length of Day
10h 52m
Waning Gibbous, 82% of the Moon is Illuminated
Jan 1
Waning Gibbous
Jan 4
Last Quarter
Jan 11
New
Jan 18
First Quarter
Jan 26
Full

Hourly Weather History & Observations

Time (HST) Temp. Dew Point Humidity Pressure Visibility Wind Dir Wind Speed Gust Speed Precip Events Conditions
12:53 AM 66.9 °F 64.9 °F 93% 30.07 in 8.0 mi NNW 4.6 mph - N/A   Scattered Clouds
1:53 AM 67.6 °F 64.9 °F 91% 30.07 in 8.0 mi NW 5.8 mph - N/A   Scattered Clouds
2:53 AM 66.9 °F 64.9 °F 93% 30.06 in 10.0 mi NNW 8.1 mph - N/A   Partly Cloudy
3:53 AM 68.0 °F 66.0 °F 93% 30.06 in 10.0 mi North 6.9 mph - N/A   Partly Cloudy
4:53 AM 68.0 °F 66.0 °F 93% 30.07 in 10.0 mi NNW 6.9 mph - N/A   Partly Cloudy
5:53 AM 68.2 °F 66.0 °F 93% 30.07 in 10.0 mi NNW 5.8 mph - N/A   Partly Cloudy
6:53 AM 66.9 °F 66.0 °F 97% 30.08 in 10.0 mi NNW 3.5 mph - N/A   Scattered Clouds
7:53 AM 68.0 °F 66.0 °F 93% 30.09 in 10.0 mi Calm Calm - N/A   Scattered Clouds
8:53 AM 73.0 °F 66.9 °F 81% 30.12 in 10.0 mi NE 8.1 mph - N/A   Scattered Clouds
9:53 AM 73.0 °F 68.0 °F 84% 30.12 in 10.0 mi NNE 11.5 mph 18.4 mph 0.00 in Rain Light Rain
10:53 AM 73.0 °F 68.0 °F 84% 30.11 in 10.0 mi NNE 9.2 mph - 0.00 in   Mostly Cloudy
11:53 AM 70.0 °F 69.1 °F 97% 30.09 in 5.0 mi NNE 12.7 mph - 0.00 in Rain Light Rain
12:00 PM 69.8 °F 69.8 °F 100% 30.08 in 5.0 mi NNE 11.5 mph - 0.00 in Rain Light Rain
12:30 PM 71.6 °F 68.0 °F 88% 30.07 in 10.0 mi NE 12.7 mph 18.4 mph 0.00 in   Mostly Cloudy
12:53 PM 72.0 °F 66.9 °F 84% 30.05 in 10.0 mi North 11.5 mph 18.4 mph 0.00 in   Mostly Cloudy
1:53 PM 72.0 °F 66.9 °F 84% 30.03 in 10.0 mi NNE 10.4 mph - 0.00 in   Mostly Cloudy
2:04 PM 71.6 °F 66.2 °F 83% 30.03 in 10.0 mi North 12.7 mph - N/A   Mostly Cloudy
2:30 PM 71.6 °F 66.2 °F 83% 30.03 in 10.0 mi NNE 13.8 mph 21.9 mph N/A   Mostly Cloudy
2:53 PM 71.1 °F 64.9 °F 81% 30.03 in 10.0 mi NNE 13.8 mph - N/A   Mostly Cloudy
3:53 PM 71.1 °F 66.0 °F 84% 30.04 in 10.0 mi NNE 12.7 mph 23.0 mph N/A   Scattered Clouds
4:53 PM 69.1 °F 64.9 °F 87% 30.04 in 10.0 mi NE 17.3 mph - N/A   Mostly Cloudy
5:53 PM 66.9 °F 64.9 °F 93% 30.06 in 10.0 mi NNE 15.0 mph - N/A   Mostly Cloudy
6:53 PM 66.0 °F 64.9 °F 96% 30.08 in 10.0 mi North 9.2 mph - N/A   Mostly Cloudy
7:53 PM 66.0 °F 66.0 °F 100% 30.10 in 10.0 mi North 9.2 mph - 0.00 in   Mostly Cloudy
8:53 PM 64.9 °F 64.9 °F 100% 30.11 in 10.0 mi ENE 3.5 mph - 0.00 in Rain Light Rain
9:53 PM 72.0 °F 64.9 °F 78% 30.11 in 10.0 mi NNE 6.9 mph - 0.00 in Rain Light Rain
10:53 PM 71.4 °F 61.9 °F 72% 30.11 in 10.0 mi North 9.2 mph - 0.00 in   Mostly Cloudy
11:53 PM 69.6 °F 64.0 °F 82% 30.10 in 10.0 mi NNE 10.4 mph - N/A   Mostly Cloudy